Retour au catalogue

THORAD AGENA D DEB

ActifSSO
NORAD 4677·DEBRIS·🇺🇸 United States

Lancé Apr 8, 1970 depuis Vandenberg Space Force Base

Loading…

Prochains Passages (prochaines 24 heures)

TLE

FraisSource: Space-Track

Époque: Sep 14, 2026, 13:40 UTC

1  4677U 70025BA  26257.56953796  .00000105  00000-0  20887-3 0  9994
2  4677  99.9984  19.4461 0008519 289.8940 134.2802 13.58505889790695

Suivez THORAD AGENA D DEB en temps réel avec AllMySat

Download on the App Store